Location: Maccacari
(45.1333°N, 11.1333°E)
Time: 07:59:10
(UTC+00:00)

Lacrosse 5 rocket - Pass Details

Date: 18 September 2020
Orbit: 460 x 636 km, 57.0° (Epoch: 29 October)

Event Time Altitude Azimuth Distance (km) Brightness Sun altitude
Rises 18:06:59 0° 263° (W) 2,721 6.5 -9.0°
Reaches altitude 10° 18:09:23 10° 275° (W) 1,861 5.6 -9.5°
Maximum altitude 18:13:06 29° 336° (NNW) 1,087 3.2 -10.1°
Drops below altitude 10° 18:17:01 10° 37° (NE) 1,958 3.9 -10.8°
Enters shadow 18:19:32 - 49° (NE) 2,863 4.6 -11.2°
